STARLINK-30126, 56694

Orbit data source: Space-Track

STARLINK-30126, 56694 is a payload satellite owned by SpaceX/Seattle (US) in LEO that was launched on Fri, 19 May 2023 UTC via an FALCON 9 launch vehicle from the Air Force Eastern Test Range (AFETR). Payload-class satellites include a variety of spacecraft equipped with specific instruments for various scientific and technological missions. These include communications satellites like Starlink; space stations such as the ISS; scientific satellites like the Hubble; Earth observation satellites from companies like Planet Labs, Umbra, and HawkEye 360; GPS; miniature CubeSats for education and research; and military/defense satellites.

Loading next visibility...
Identifier
56694, 2023-067G
Orbit
LEO
Country
Flag of USUS
Related business
Manufacturer
SpaceX/Seattle
Mission
Operational Commercial Communications
Bus & Motor
STARLINK V2M, Unknown motor
Mass
730 kg wet, ~700 kg dry
Launch date (UTC)
2023-05-19 (3 years ago)
Launch vehicle
FALCON 9
Launch site
Air Force Eastern Test Range (AFETR)
Object type
Payload
Rocket body
Debris
Shape & HBR
Box + 2 Pan, 17.7 m
Radar Cross Section
33.884 m², Large (>1 m²)

Expand to show TLE details & history
Last TLE update: 2 days ago

TLE from 2 days ago
0 STARLINK-30126
1 56694U 23067G   26171.09491145  .00000780  00000-0  37882-4 0  9995
2 56694  43.0028  55.9657 0001500 264.0503  96.0178 15.27579896171326
Epoch: 2026-06-20T02:16Z
TLE epoch observation values (Epoch: 2026-06-20T02:16:40.349Z)
Latitude
0.00001°
Longitude
113.48313°
Altitude
482.933 km
Speed
7.626 km/s
True Right ascension
03h 43m 51s
True Declination
0° 00' 00"
Sunlit
Object was in daylight at epoch
Visualization orbit readout
Latitude
Unknown
Longitude
Unknown
Altitude
Unknown
Speed
Unknown
Apparent Right ascension
Unknown
Apparent Declination
Unknown
Sunlit
N/A
Visualization observer readout
Local Sidereal Time
21:33:49
Azimuth
Unknown
Elevation
Unknown
Doppler factor
Unknown
Orbital elements
Apogee altitude
486.024 km
Perigee altitude
483.965 km
Semi-major axis
6,863.131 km
Eccentricity
0.00015
Inclination
43.0028°
RAAN
55.9657°
Arg. of periapsis
264.0503°
True anomaly
96.03489°
Mean anomaly
96.0178°
Eccentric anomaly
96.02635°
Mean motion
3.81733 °/min
Orbital period
94.31 mins
BSTAR
0.000037882
Loading maneuver chart data...
Computing Atmospheric mass density...
Loading historical data...
Loading historical data...
Loading historical data...
Loading historical data...
Loading historical data...
Loading historical data...
Loading historical data...

Documentation

Showing up to 5 results
|